Location: Amon Carter Post Office
(32.8281°N, 97.0484°W)
Time: 09:36:59
(UTC+00:00)

Meteor 2-15 Rocket - Pass Details

Date: 12 July 2022
Orbit: 939 x 956 km, 82.5° (Epoch: 13 August)

Event Time Altitude Azimuth Distance (km) Brightness Sun altitude
Rises 10:18:47 0° 352° (N) 3,633 7.9 -13.3°
Reaches altitude 10° 10:21:18 10° 352° (N) 2,682 7.2 -12.9°
Maximum altitude 10:27:26 84° 264° (W) 958 4.4 -11.9°
Drops below altitude 10° 10:33:31 10° 178° (S) 2,656 6.5 -10.9°
Sets 10:35:59 0° 177° (S) 3,595 7.2 -10.4°
